Dewpoint
61 64 64 66 66 66 66 68 68 68 68 68 68 68 68 70 70 71 72 72 72 73 72 72 71 71 70 71 70 69 70 68 68 67 66 64 65 64 67 66 67 67 67
62 63 64 65 65 65 66 67 68 68 68 68 68 69 69 70 71 71 72 72 72 73 73 71 70 70 71 71 71 69 68 68 68 67 64 63 63 65 65 65 66 67 66
62 63 64 65 65 65 66 67 67 68 68 68 70 70 70 70 71 71 71 71 71 72 72 71 71 71 71 70 71 71 70 68 69 68 66 63 62 63 64 65 64 66 66
62 63 63 64 64 64 66 67 67 68 68 69 69 69 68 68 69 70 72 72 72 72 73 72 71 71 70 71 70 71 69 70 69 69 68 67 65 64 63 64 64 64 63
62 62 62 64 64 64 65 66 67 68 69 69 70 68 69 69 70 70 71 71 72 73 71 72 72 72 70 70 70 72 72 73 71 69 68 68 66 66 64 63 65 66 63
62 63 62 64 64 64 65 67 67 67 69 69 69 69 68 68 69 70 70 71 72 73 73 73 72 72 71 70 71 72 72 71 71 70 70 68 68 67 67 65 64 65 66
60 62 63 63 64 64 65 67 67 66 68 69 70 69 69 69 68 69 70 70 71 71 72 73 72 72 71 71 70 72 72 72 71 71 70 69 69 69 68 66 64 64 66
61 63 64 65 65 65 66 67 67 66 67 69 69 70 69 69 70 70 70 70 71 71 72 72 73 72 72 70 70 71 71 71 71 71 71 70 70 69 69 68 67 66 67
62 63 64 66 66 65 67 67 67 67 67 68 69 70 70 69 69 70 71 70 71 71 71 71 73 72 72 72 72 72 72 72 72 71 71 70 70 70 70 69 68 67 64
62 63 64 64 66 66 68 67 67 67 67 68 69 69 70 70 70 70 70 70 71 71 71 70 71 72 72 73 72 72 72 72 71 71 72 71 71 71 71 71 70 69 66
64 65 66 67 67 68 69 70 69 68 68 68 68 70 70 71 71 70 71 71 71 71 71 71 71 72 72 73 73 72 72 71 71 71 71 71 71 70 70 71 71 69 68
63 64 66 67 67 68 69 69 69 69 69 70 70 69 70 71 71 71 71 72 72 71 70 71 71 72 71 72 72 72 72 71 71 71 71 70 70 71 71 71 71 70 71
64 64 65 66 66 67 68 69 69 68 68 68 69 70 70 71 71 71 72 72 73 72 71 71 70 70 70 71 71 72 72 72 71 71 71 71 71 71 70 71 70 70 70
64 65 65 66 66 67 68 68 68 68 68 68 68 68 69 69 70 70 71 71 72 72 71 71 70 70 70 69 68 71 72 72 72 72 72 72 71 71 72 71 72 70 70
62 63 64 65 66 66 68 68 68 68 68 67 68 68 68 68 69 68 68 69 70 71 72 71 71 70 69 68 70 71 71 72 72 72 72 72 72 70 70 73 73 72 71
61 62 63 64 64 65 66 66 66 68 68 67 67 67 67 67 66 68 68 68 68 68 69 70 71 71 72 66 66 71 72 73 73 73 73 73 71 71 67 66 67 71 73
60 61 62 62 62 63 64 63 64 65 65 65 66 66 65 65 65 66 66 65 66 67 68 68 68 68 70 63 63 66 71 72 72 72 72 71 71 71 72 69 66 66 65
55 58 61 61 58 57 57 56 57 58 58 59 60 63 65 64 64 63 63 63 63 64 65 66 68 69 67 60 61 64 69 71 70 70 71 71 71 68 67 70 71 72 72
53 56 56 57 55 54 53 53 53 52 52 52 54 55 58 60 61 62 63 62 61 61 62 65 68 64 61 57 59 65 69 68 68 69 68 68 66 61 59 67 68 69 70
56 54 53 53 53 53 51 49 49 48 49 50 50 53 53 55 57 59 61 62 61 62 64 65 65 61 61 53 55 59 62 61 63 65 66 62 61 59 59 61 62 63 67
52 52 52 50 49 49 48 48 47 47 47 48 48 49 50 51 52 52 53 53 52 53 60 59 57 55 53 51 50 52 57 59 61 62 62 62 56 55 54 54 61 59 60
49 49 48 48 48 48 47 46 46 47 47 47 47 48 48 48 49 50 47 48 50 50 50 50 50 52 51 48 47 48 50 52 57 58 60 60 52 50 51 56 55 54 56
47 47 46 46 46 46 46 45 46 47 46 45 45 45 46 46 48 46 46 45 46 47 47 46 46 47 45 43 45 45 47 49 53 54 52 51 50 51 53 54 54 56 63
46 46 45 44 44 45 45 45 45 45 44 44 43 43 43 43 44 44 44 44 43 43 42 43 43 44 41 40 40 41 42 45 50 50 52 52 52 52 53 55 57 59 61
46 46 45 44 44 44 44 44 44 44 42 41 41 41 41 41 42 43 43 42 43 42 40 40 41 39 37 37 40 40 39 42 46 47 54 53 50 51 52 53 55 57 59
45 44 44 43 43 43 43 43 44 43 41 39 40 40 40 40 39 39 38 41 42 40 39 40 39 39 39 40 39 38 39 41 44 50 50 48 50 48 49 50 52 54 55
Lifted_Index
-0 -0 -1 -1 -1 -1 -1 -1 -2 -2 -3 -3 -2 -2 -2 -2 -3 -3 -3 -3 -3 -3 -3 -3 -2 -2 -2 -2 -3 -2 -2 -2 -2 -2 -2 -2 -2 -3 -3 -4 -4 -4 -4
-1 -1 -1 -1 -1 -1 -1 -1 -2 -2 -2 -2 -2 -2 -2 -2 -2 -3 -3 -3 -3 -3 -3 -3 -2 -2 -2 -2 -3 -3 -2 -3 -3 -3 -2 -2 -3 -3 -3 -3 -3 -4 -4
-1 -1 -1 -1 -1 -1 -1 -1 -1 -2 -2 -2 -2 -2 -2 -2 -2 -3 -3 -3 -3 -3 -3 -3 -3 -2 -2 -2 -2 -3 -3 -3 -3 -3 -3 -3 -3 -4 -3 -3 -3 -3 -3
-1 -1 -1 -1 -1 -1 -1 -1 -1 -1 -1 -2 -2 -2 -2 -2 -2 -2 -3 -3 -3 -3 -3 -3 -3 -3 -2 -2 -2 -3 -3 -3 -3 -3 -3 -3 -4 -4 -4 -3 -3 -3 -3
-2 -1 -1 -1 -1 -0 -1 -1 -1 -1 -1 -2 -2 -2 -2 -2 -2 -2 -2 -2 -3 -3 -3 -4 -3 -3 -3 -2 -2 -3 -3 -3 -3 -3 -3 -3 -4 -4 -4 -4 -4 -3 -3
-2 -2 -2 -1 -1 -1 -1 -1 -1 -1 -1 -2 -2 -2 -2 -2 -2 -2 -2 -2 -2 -3 -3 -4 -3 -3 -3 -2 -3 -3 -3 -3 -3 -3 -3 -3 -3 -4 -4 -4 -4 -4 -4
-1 -1 -2 -2 -1 -1 -1 -0 -0 -0 -1 -1 -2 -2 -2 -2 -2 -2 -2 -2 -2 -3 -3 -3 -4 -3 -3 -3 -3 -3 -3 -3 -3 -3 -3 -3 -3 -4 -4 -4 -4 -4 -4
-1 -1 -2 -2 -1 -1 -1 -0 -0 -0 -0 -1 -1 -2 -2 -2 -2 -2 -2 -2 -2 -2 -3 -3 -4 -4 -3 -3 -3 -3 -3 -3 -3 -3 -3 -3 -3 -3 -4 -4 -4 -4 -4
-1 -1 -1 -1 -1 -1 -1 -1 -0 -0 -1 -1 -1 -2 -2 -2 -2 -2 -2 -2 -2 -2 -2 -3 -3 -4 -3 -3 -3 -3 -3 -3 -3 -3 -3 -3 -3 -3 -4 -4 -4 -3 -3
-1 -1 -1 -1 -1 -1 -1 -1 -1 -1 -1 -1 -1 -2 -2 -2 -2 -2 -2 -2 -2 -2 -2 -2 -3 -3 -3 -3 -3 -3 -3 -3 -3 -3 -3 -4 -4 -3 -3 -3 -3 -3 -3
-2 -1 -1 -1 -0 -1 -1 -2 -2 -1 -1 -1 -2 -2 -2 -2 -2 -2 -2 -2 -3 -2 -2 -2 -2 -3 -3 -3 -3 -3 -3 -3 -3 -3 -3 -3 -3 -3 -3 -3 -3 -3 -3
-2 -2 -1 -1 -0 -0 -1 -2 -2 -2 -1 -2 -2 -2 -2 -3 -3 -3 -2 -3 -3 -3 -2 -2 -2 -3 -3 -3 -3 -3 -3 -3 -3 -3 -3 -3 -3 -3 -3 -3 -3 -3 -3
-2 -1 -1 -1 -1 -1 -1 -1 -1 -1 -1 -1 -1 -2 -2 -2 -3 -3 -3 -3 -3 -3 -3 -3 -3 -3 -3 -3 -3 -3 -3 -3 -3 -3 -3 -3 -3 -3 -3 -3 -3 -3 -3
-2 -2 -1 -1 -1 -1 -1 -1 -1 -1 -1 -1 -1 -1 -2 -2 -2 -3 -3 -3 -3 -3 -3 -3 -3 -3 -3 -3 -3 -3 -3 -3 -4 -4 -4 -3 -3 -3 -3 -3 -3 -3 -3
-2 -2 -2 -2 -1 -1 -1 -1 -1 -1 -0 -0 -0 -0 -1 -1 -1 -1 -2 -2 -2 -3 -3 -3 -3 -4 -4 -4 -3 -3 -3 -4 -4 -4 -4 -4 -4 -3 -3 -3 -3 -3 -3
-3 -3 -2 -2 -2 -2 -1 -1 -1 -1 -0 -0 0 1 0 0 -0 -0 -1 -1 -1 -2 -2 -3 -3 -3 -3 -4 -4 -4 -4 -4 -4 -4 -4 -4 -4 -4 -3 -3 -3 -3 -3
-2 -2 -2 -2 -2 -2 -2 -1 -1 -1 -0 0 1 1 1 1 0 0 -0 -0 -1 -1 -1 -2 -2 -2 -3 -3 -4 -4 -4 -4 -4 -4 -4 -4 -4 -3 -3 -3 -3 -3 -3
-2 -2 -2 -1 -1 -1 -1 -1 -1 -0 -0 0 1 1 1 0 0 0 1 1 0 0 -0 -1 -1 -1 -2 -3 -3 -4 -4 -4 -4 -4 -3 -3 -3 -3 -3 -3 -3 -3 -3
-2 -1 -1 -1 -1 -1 -1 -1 -0 -0 -0 0 0 0 0 0 0 1 1 2 1 1 0 -0 -0 -0 -1 -2 -2 -3 -3 -3 -3 -3 -3 -3 -3 -3 -3 -3 -3 -3 -3
-1 -1 -0 -0 0 0 1 0 0 0 0 1 1 1 1 1 1 2 2 2 2 2 1 1 0 0 -0 -1 -1 -2 -2 -2 -2 -2 -2 -2 -2 -2 -2 -2 -2 -2 -2
0 0 1 1 2 3 3 3 3 3 3 4 4 4 4 3 3 3 4 3 3 3 2 2 1 1 1 0 -0 -1 -1 -1 -1 -0 0 0 0 0 0 -0 -1 -0 -0
2 2 3 4 5 5 6 6 7 7 8 8 9 9 8 7 7 7 7 6 5 4 4 3 3 2 2 1 1 0 0 1 1 3 4 5 5 5 5 4 3 3 3
4 5 5 6 7 8 8 9 10 11 11 12 12 12 11 10 10 9 9 8 8 7 6 6 5 4 4 3 3 3 3 4 5 6 8 9 9 9 9 8 8 6 6
6 6 7 7 7 8 9 10 11 12 13 13 13 13 12 12 11 11 10 10 10 9 9 8 8 8 7 7 6 7 7 8 9 10 11 11 11 11 11 10 9 8 7
6 6 7 7 7 8 9 10 11 12 13 13 13 13 13 13 13 12 12 12 11 11 11 11 11 11 11 11 11 12 12 12 13 13 13 13 13 13 12 11 10 9 8
5 6 6 7 8 9 10 11 12 12 13 13 13 14 14 14 14 13 13 13 13 13 13 13 13 13 14 14 14 15 15 15 15 15 14 14 14 14 13 12 11 10 9